Temp
-10 -10 -10 -11 -11 -11 -11 -11 -11 -12 -13 -13 -13 -13 -14 -14 -14 -14 -14 -14 -14 -14 -15 -15 -15 -15 -15 -15 -16 -16 -16 -17 -18 -19 -20 -19 -19 -19 -19 -20 -20 -21 -21
-11 -11 -11 -11 -12 -11 -11 -11 -12 -12 -12 -13 -13 -14 -14 -14 -14 -14 -14 -14 -15 -15 -15 -16 -16 -16 -16 -17 -16 -16 -17 -17 -18 -20 -20 -19 -19 -19 -20 -20 -21 -22 -21
-12 -12 -13 -13 -12 -12 -12 -12 -12 -13 -13 -14 -14 -15 -15 -15 -15 -15 -16 -16 -16 -16 -16 -16 -17 -17 -18 -18 -18 -17 -17 -18 -18 -19 -19 -19 -19 -20 -21 -21 -21 -21 -21
-12 -13 -13 -13 -13 -13 -13 -13 -13 -14 -14 -15 -15 -15 -16 -16 -15 -15 -16 -16 -16 -16 -16 -17 -16 -17 -17 -18 -17 -18 -19 -18 -18 -19 -19 -19 -19 -20 -21 -21 -21 -21 -22
-12 -12 -12 -13 -13 -13 -14 -14 -14 -15 -16 -16 -16 -16 -16 -16 -16 -17 -17 -17 -17 -17 -17 -17 -18 -17 -16 -17 -18 -19 -19 -19 -19 -20 -20 -19 -20 -20 -21 -21 -21 -21 -22
-13 -14 -14 -14 -14 -14 -14 -14 -14 -15 -15 -15 -16 -16 -17 -17 -17 -17 -17 -18 -18 -18 -18 -18 -18 -18 -18 -18 -19 -18 -19 -19 -20 -19 -19 -20 -20 -21 -21 -21 -22 -22 -22
-14 -14 -14 -14 -14 -15 -15 -15 -15 -15 -15 -15 -16 -16 -17 -17 -18 -18 -18 -18 -18 -18 -18 -18 -18 -18 -18 -18 -18 -18 -18 -19 -19 -19 -20 -20 -20 -21 -21 -22 -22 -22 -22
-15 -15 -15 -15 -15 -15 -15 -15 -16 -15 -16 -16 -16 -17 -17 -18 -19 -19 -19 -18 -18 -18 -18 -18 -17 -18 -18 -18 -18 -19 -19 -19 -19 -20 -20 -20 -21 -21 -22 -22 -22 -22 -22
-15 -16 -16 -16 -16 -16 -17 -17 -17 -17 -18 -18 -18 -18 -19 -19 -19 -19 -19 -19 -19 -19 -19 -19 -19 -18 -18 -19 -19 -19 -19 -20 -20 -20 -20 -21 -21 -22 -22 -22 -22 -22 -22
-16 -16 -16 -16 -16 -16 -17 -17 -18 -18 -18 -19 -19 -19 -19 -19 -19 -19 -20 -20 -19 -19 -18 -19 -19 -19 -19 -19 -19 -20 -20 -20 -20 -20 -20 -21 -22 -22 -22 -22 -22 -22 -22
-16 -16 -17 -17 -17 -17 -18 -18 -18 -18 -19 -19 -19 -19 -19 -19 -19 -19 -19 -19 -19 -19 -19 -19 -19 -19 -19 -19 -19 -19 -20 -20 -20 -20 -21 -21 -22 -22 -22 -22 -22 -22 -22
-16 -17 -17 -17 -17 -17 -18 -19 -19 -19 -19 -19 -19 -19 -19 -20 -20 -20 -20 -19 -19 -20 -19 -19 -20 -20 -20 -20 -20 -20 -20 -20 -20 -20 -21 -22 -22 -22 -21 -22 -22 -23 -23
-17 -17 -17 -18 -18 -18 -18 -18 -19 -19 -19 -19 -19 -19 -19 -19 -19 -20 -20 -20 -20 -20 -20 -20 -20 -20 -20 -21 -20 -20 -20 -21 -21 -21 -21 -22 -21 -21 -21 -22 -23 -23 -23
-17 -18 -18 -18 -18 -18 -19 -19 -19 -19 -19 -19 -19 -19 -19 -20 -20 -20 -20 -20 -20 -20 -20 -20 -20 -21 -21 -20 -21 -21 -21 -21 -21 -21 -22 -21 -21 -22 -22 -23 -23 -23 -24
-18 -18 -18 -18 -18 -18 -18 -18 -18 -19 -19 -19 -19 -20 -20 -20 -20 -20 -20 -20 -20 -20 -20 -20 -20 -21 -21 -21 -21 -21 -21 -21 -22 -22 -22 -22 -22 -23 -23 -23 -23 -24 -24
-17 -18 -18 -18 -18 -18 -18 -18 -18 -18 -19 -19 -19 -20 -20 -20 -20 -20 -20 -20 -20 -20 -20 -21 -21 -21 -21 -21 -21 -21 -21 -21 -22 -22 -22 -22 -23 -23 -23 -24 -24 -25 -25
-18 -18 -18 -18 -18 -19 -19 -19 -19 -19 -19 -19 -19 -19 -20 -20 -20 -20 -20 -20 -20 -20 -20 -21 -21 -21 -21 -21 -21 -21 -22 -22 -23 -23 -23 -23 -23 -23 -24 -24 -25 -25 -25
-18 -18 -18 -18 -18 -18 -19 -19 -20 -20 -20 -20 -20 -20 -20 -20 -20 -20 -21 -21 -21 -21 -21 -21 -21 -21 -22 -22 -22 -23 -23 -23 -23 -24 -24 -24 -24 -24 -24 -25 -25 -26 -26
-19 -19 -18 -19 -19 -19 -19 -19 -19 -20 -20 -20 -21 -21 -21 -21 -21 -21 -21 -21 -21 -21 -22 -22 -22 -22 -22 -23 -23 -23 -23 -24 -24 -24 -25 -25 -25 -25 -25 -26 -26 -27 -27
-19 -20 -19 -19 -19 -20 -20 -20 -20 -20 -20 -21 -21 -21 -21 -22 -22 -22 -22 -22 -22 -22 -22 -23 -23 -23 -23 -23 -23 -24 -24 -25 -25 -25 -26 -26 -26 -27 -27 -27 -27 -28 -28
-20 -20 -20 -20 -20 -21 -20 -21 -21 -21 -21 -21 -21 -22 -22 -22 -22 -22 -22 -23 -23 -23 -23 -23 -23 -24 -24 -24 -25 -25 -26 -26 -26 -26 -27 -27 -27 -27 -28 -28 -28 -29 -29
-21 -21 -21 -21 -21 -21 -21 -21 -21 -21 -21 -22 -22 -22 -22 -22 -22 -22 -22 -22 -23 -23 -24 -24 -24 -25 -25 -25 -26 -26 -26 -26 -27 -27 -28 -28 -28 -28 -28 -28 -29 -29 -30
-22 -22 -22 -22 -22 -22 -22 -22 -22 -22 -22 -22 -22 -22 -23 -23 -23 -23 -23 -23 -24 -25 -26 -26 -26 -26 -27 -27 -27 -27 -27 -27 -28 -28 -28 -28 -29 -29 -30 -30 -30 -30 -31
-23 -23 -23 -23 -23 -23 -23 -23 -23 -23 -23 -23 -23 -23 -23 -24 -24 -24 -25 -25 -25 -26 -26 -26 -27 -27 -27 -27 -27 -27 -28 -28 -28 -28 -29 -29 -30 -32 -32 -32 -32 -32 -32
-24 -24 -24 -24 -24 -24 -24 -24 -24 -24 -24 -24 -24 -24 -24 -25 -26 -26 -26 -27 -27 -27 -27 -27 -27 -27 -27 -28 -28 -29 -29 -30 -30 -30 -30 -30 -31 -32 -33 -33 -32 -32 -32
-24 -24 -25 -25 -25 -25 -25 -25 -26 -26 -26 -26 -26 -26 -26 -27 -27 -27 -27 -27 -28 -28 -28 -28 -28 -29 -29 -30 -30 -31 -31 -31 -31 -32 -32 -32 -33 -33 -33 -34 -34 -34 -33
Height
5800 5799 5799 5799 5798 5796 5795 5794 5792 5789 5788 5787 5786 5785 5782 5778 5777 5775 5774 5772 5768 5765 5762 5759 5754 5749 5744 5739 5736 5731 5727 5722 5717 5713 5709 5704 5700 5695 5691 5683 5676 5669 5663
5790 5790 5789 5787 5786 5786 5785 5783 5779 5776 5773 5772 5771 5769 5768 5765 5761 5759 5758 5757 5753 5751 5748 5745 5740 5737 5732 5728 5724 5720 5716 5710 5707 5702 5697 5694 5689 5685 5679 5672 5665 5657 5651
5779 5778 5777 5776 5775 5774 5771 5770 5767 5764 5761 5758 5757 5755 5754 5753 5750 5746 5743 5741 5738 5734 5730 5729 5725 5723 5718 5715 5711 5708 5704 5700 5695 5691 5687 5684 5680 5674 5668 5660 5653 5646 5640
5766 5765 5764 5763 5761 5760 5759 5756 5754 5751 5748 5746 5744 5741 5740 5738 5736 5733 5730 5727 5725 5721 5717 5715 5712 5709 5705 5701 5699 5695 5692 5689 5684 5679 5676 5672 5668 5663 5656 5649 5644 5635 5629
5755 5753 5751 5749 5747 5746 5744 5742 5740 5739 5736 5734 5731 5728 5725 5722 5721 5720 5717 5715 5712 5709 5706 5703 5701 5697 5695 5690 5683 5681 5679 5675 5671 5668 5663 5660 5657 5651 5644 5637 5631 5625 5618
5741 5740 5739 5737 5735 5733 5732 5731 5728 5725 5722 5720 5718 5716 5713 5711 5707 5705 5702 5702 5700 5695 5692 5689 5686 5685 5680 5677 5675 5670 5667 5662 5659 5656 5652 5650 5645 5638 5631 5625 5619 5611 5606
5728 5727 5726 5724 5722 5720 5718 5716 5713 5710 5708 5705 5703 5701 5698 5697 5695 5692 5690 5687 5686 5684 5683 5680 5676 5673 5668 5662 5660 5657 5655 5651 5647 5643 5640 5636 5633 5626 5621 5613 5606 5599 5592
5715 5714 5712 5710 5707 5705 5703 5700 5697 5695 5692 5689 5687 5685 5683 5682 5680 5679 5676 5674 5671 5669 5668 5664 5662 5658 5655 5650 5647 5644 5641 5638 5634 5630 5627 5623 5618 5613 5608 5601 5594 5587 5580
5700 5699 5697 5696 5694 5691 5689 5686 5683 5681 5677 5675 5672 5670 5669 5667 5665 5665 5662 5659 5658 5654 5653 5650 5649 5644 5640 5640 5634 5630 5628 5624 5620 5615 5612 5608 5604 5598 5592 5586 5581 5576 5569
5686 5684 5683 5682 5680 5677 5674 5672 5670 5668 5666 5663 5660 5657 5654 5652 5651 5648 5646 5645 5642 5640 5638 5636 5634 5631 5628 5624 5621 5616 5614 5610 5607 5602 5597 5593 5590 5584 5578 5571 5566 5561 5555
5674 5672 5670 5667 5665 5662 5660 5658 5656 5654 5652 5651 5648 5645 5641 5638 5636 5633 5631 5629 5627 5626 5623 5621 5620 5616 5615 5611 5608 5602 5600 5597 5592 5588 5584 5579 5575 5569 5563 5558 5551 5546 5541
5660 5658 5656 5654 5652 5650 5647 5645 5642 5640 5637 5635 5634 5632 5629 5626 5623 5620 5617 5614 5612 5610 5608 5607 5604 5602 5600 5597 5594 5589 5587 5582 5578 5575 5570 5565 5560 5553 5549 5544 5538 5532 5526
5646 5645 5643 5642 5639 5636 5633 5631 5628 5626 5624 5622 5620 5617 5615 5613 5610 5606 5604 5601 5599 5597 5594 5592 5588 5586 5583 5582 5578 5574 5572 5568 5563 5560 5556 5551 5543 5539 5535 5530 5524 5518 5511
5633 5632 5629 5628 5626 5624 5621 5619 5616 5613 5610 5608 5606 5604 5600 5597 5594 5592 5590 5587 5585 5583 5580 5577 5575 5573 5570 5568 5564 5562 5557 5553 5548 5545 5540 5533 5528 5524 5520 5514 5508 5503 5498
5620 5617 5614 5613 5612 5610 5607 5605 5602 5600 5597 5594 5592 5589 5588 5584 5581 5578 5576 5574 5573 5570 5567 5564 5562 5558 5555 5552 5549 5545 5541 5536 5532 5528 5522 5517 5511 5507 5502 5496 5491 5487 5483
5605 5603 5602 5600 5597 5596 5593 5590 5587 5585 5583 5581 5578 5576 5574 5572 5569 5565 5563 5560 5558 5555 5554 5551 5547 5544 5540 5536 5533 5528 5523 5519 5515 5509 5503 5499 5494 5489 5485 5479 5474 5470 5465
5589 5587 5585 5584 5583 5580 5577 5575 5572 5570 5567 5566 5564 5562 5558 5556 5553 5549 5547 5546 5543 5540 5538 5535 5531 5527 5523 5518 5513 5509 5505 5500 5496 5489 5484 5479 5474 5469 5466 5461 5455 5451 5447
5572 5570 5570 5570 5567 5566 5564 5562 5559 5555 5552 5551 5548 5545 5543 5540 5536 5533 5531 5529 5525 5521 5520 5516 5512 5507 5503 5499 5494 5489 5485 5480 5475 5470 5465 5459 5454 5449 5446 5442 5437 5432 5428
5555 5555 5555 5554 5552 5551 5548 5547 5545 5541 5538 5534 5531 5529 5526 5522 5519 5516 5512 5509 5506 5503 5497 5494 5491 5487 5482 5477 5472 5467 5462 5458 5453 5448 5443 5437 5432 5427 5426 5423 5418 5413 5409
5542 5536 5538 5536 5534 5531 5530 5528 5526 5523 5521 5517 5515 5511 5508 5506 5502 5497 5494 5490 5486 5482 5478 5473 5468 5463 5459 5454 5449 5443 5439 5434 5430 5424 5420 5415 5410 5407 5404 5401 5396 5393 5390
5522 5518 5517 5516 5514 5511 5509 5507 5504 5502 5500 5497 5494 5491 5489 5486 5482 5477 5473 5467 5462 5458 5453 5449 5444 5439 5435 5430 5425 5419 5414 5410 5406 5401 5397 5392 5387 5382 5380 5378 5376 5372 5370
5500 5498 5497 5495 5493 5491 5488 5486 5484 5480 5478 5475 5471 5467 5464 5461 5456 5452 5445 5440 5436 5431 5425 5421 5418 5414 5409 5405 5399 5395 5390 5385 5380 5374 5369 5365 5361 5357 5354 5352 5351 5350 5348
5478 5476 5474 5472 5470 5468 5466 5464 5461 5458 5455 5451 5448 5444 5439 5435 5430 5425 5422 5416 5410 5404 5399 5394 5391 5387 5382 5377 5371 5365 5361 5357 5352 5347 5342 5337 5334 5330 5327 5325 5324 5324 5325
5456 5454 5452 5449 5447 5443 5440 5437 5435 5432 5430 5426 5422 5418 5413 5408 5403 5397 5392 5388 5384 5378 5373 5367 5361 5357 5354 5349 5344 5338 5332 5327 5323 5319 5314 5310 5308 5305 5304 5301 5300 5299 5299
5432 5430 5427 5425 5422 5419 5416 5413 5410 5407 5403 5400 5396 5390 5386 5381 5375 5370 5366 5360 5356 5352 5346 5339 5334 5329 5323 5318 5312 5306 5300 5295 5293 5289 5285 5282 5280 5278 5277 5277 5276 5275 5275
5407 5405 5402 5399 5396 5393 5389 5385 5381 5378 5375 5371 5367 5363 5359 5354 5351 5345 5340 5333 5328 5322 5316 5310 5303 5297 5292 5287 5282 5278 5273 5269 5266 5261 5257 5254 5253 5251 5249 5249 5250 5250 5250
Wind_Speed
40 41 40 39 37 35 34 36 40 47 52 54 54 55 56 58 60 57 54 58 57 54 60 59 57 55 56 53 55 53 53 50 46 44 49 53 54 53 55 55 55 57 53
41 42 42 42 43 45 48 49 47 49 52 54 56 59 57 55 58 60 57 57 61 60 57 60 61 58 52 55 56 53 55 47 43 47 51 51 53 55 50 53 54 57 57
46 45 45 45 47 47 47 48 50 53 55 58 61 62 63 61 62 61 62 61 61 62 61 60 61 54 57 52 56 50 48 43 48 53 49 54 53 46 48 56 58 56 56
50 50 51 52 51 50 49 51 52 54 57 60 63 65 64 61 58 58 56 54 53 54 55 54 56 54 52 48 50 54 50 56 55 47 51 51 53 49 50 56 56 55 55
54 56 57 56 55 53 52 52 55 57 58 60 60 59 59 60 62 58 53 50 52 51 53 54 51 52 47 53 49 47 53 48 45 47 55 56 53 54 51 53 55 54 56
52 51 51 52 53 56 56 56 57 58 58 58 58 57 53 51 51 48 49 46 46 44 49 46 44 48 50 47 51 60 57 46 49 51 56 53 55 54 50 49 56 56 56
48 48 48 48 48 49 51 51 53 55 57 57 56 56 55 52 50 46 45 50 50 54 52 54 52 53 53 50 48 48 48 50 52 57 53 56 56 41 53 54 51 55 59
49 48 49 48 49 51 53 54 53 54 54 53 52 51 52 52 52 50 47 48 47 48 52 54 53 49 46 53 53 48 50 54 56 56 54 56 53 49 53 53 53 57 60
47 49 48 48 51 53 56 56 56 55 50 48 48 48 47 48 48 48 48 48 46 47 52 54 47 47 50 54 54 58 58 57 55 53 54 54 53 49 54 55 57 60 60
45 45 46 46 48 51 53 56 58 56 54 48 46 46 48 48 48 47 48 50 50 53 54 53 52 52 49 52 56 59 52 54 54 52 54 56 57 48 55 59 61 60 60
41 42 43 45 48 51 53 56 58 60 57 55 52 48 44 42 43 47 49 51 51 48 45 45 44 51 52 53 53 52 56 50 48 54 57 54 48 54 58 60 60 62 61
36 38 39 40 44 49 51 51 53 56 57 57 54 53 48 45 45 46 49 50 49 50 50 50 49 51 53 51 51 47 52 53 51 51 52 53 50 57 61 61 62 62 62
37 38 37 39 42 44 45 47 48 47 48 51 52 54 57 59 54 49 52 52 51 51 49 49 50 51 50 48 48 54 63 51 50 54 52 48 58 62 64 63 64 63 62
39 38 36 38 41 44 45 48 50 50 50 50 50 50 50 50 50 50 49 49 49 48 47 47 47 46 46 47 47 50 55 52 53 54 55 63 66 67 65 65 68 66 62
39 39 38 41 43 43 44 46 47 49 49 48 48 47 47 47 46 45 45 45 46 46 46 46 46 47 48 50 52 55 56 57 58 60 65 67 67 68 69 69 69 65 62
42 43 44 44 44 45 45 44 44 45 46 46 46 46 47 48 48 48 47 47 47 47 47 48 49 51 52 55 57 59 61 62 62 64 70 71 71 73 72 68 66 65 65
46 46 48 49 50 47 48 49 47 46 47 48 49 50 50 49 48 48 48 48 49 50 49 51 54 55 57 60 61 63 65 65 64 71 75 77 76 77 74 69 69 69 69
51 51 51 53 53 54 54 53 53 52 52 53 52 51 52 53 52 52 54 54 54 56 58 59 60 62 65 67 68 69 70 71 73 75 77 78 79 80 77 74 73 71 68
53 54 58 59 58 58 57 60 63 61 61 59 58 58 57 57 57 57 57 59 62 64 65 67 69 69 70 71 72 74 75 75 75 77 77 78 80 81 78 76 75 71 70
64 56 63 65 64 63 63 66 65 66 68 66 66 65 63 63 64 66 67 69 70 70 72 73 75 75 76 77 78 79 78 78 78 79 79 80 80 80 79 78 76 71 67
69 63 66 70 69 68 68 69 67 68 70 72 70 67 68 71 72 73 75 75 76 78 79 79 79 80 81 80 79 77 77 77 78 79 79 79 81 81 79 76 74 70 66
70 70 71 71 72 72 72 73 75 73 73 73 75 77 76 78 80 80 82 84 85 85 83 84 84 82 82 83 82 82 81 81 80 80 81 82 82 82 80 78 76 73 67
72 73 74 75 76 77 77 78 79 79 80 80 82 83 85 87 87 88 89 90 88 85 85 84 85 84 84 83 83 82 83 82 83 84 84 84 84 82 79 78 77 74 69
77 78 79 81 81 81 81 82 84 84 86 87 88 89 90 91 91 91 91 92 91 90 90 90 87 87 87 87 88 89 89 88 85 85 82 80 80 76 73 73 74 75 76
84 85 85 86 86 86 86 86 87 90 91 92 93 93 93 92 91 92 92 90 89 89 89 90 92 93 92 91 88 84 81 80 80 77 77 77 75 76 75 75 74 77 79
87 88 88 87 88 88 90 89 88 88 87 88 89 90 91 91 89 90 91 91 92 93 92 92 91 88 86 83 80 77 74 73 72 69 70 71 72 72 73 73 76 75 71
Wind_Direction
278 281 284 285 280 271 272 272 274 274 272 271 271 274 276 279 281 282 284 286 287 285 286 292 293 294 294 297 295 296 295 294 293 294 294 294 305 307 307 306 308 311 312
277 281 283 282 281 277 276 277 272 270 272 272 273 272 272 274 277 279 282 282 286 285 285 286 291 291 293 293 293 295 293 291 289 291 288 304 305 305 306 306 308 309 311
275 273 276 272 275 274 275 274 274 273 273 274 275 277 278 278 277 279 280 281 280 281 282 284 287 285 288 289 290 289 289 284 287 290 296 301 303 310 306 303 303 306 310
276 277 279 279 279 278 275 274 275 274 275 276 277 279 280 282 282 281 280 280 280 282 283 283 283 281 290 287 282 290 282 287 289 294 297 300 311 308 311 311 307 309 309
274 274 275 277 278 278 277 278 279 281 282 283 285 287 286 285 280 274 280 283 283 283 283 284 285 285 269 282 278 282 288 288 290 295 295 304 308 305 301 302 306 307 307
273 276 280 284 288 288 288 289 283 281 281 283 286 288 290 290 286 285 286 286 288 290 284 283 281 278 279 275 277 285 278 288 289 293 298 303 305 303 295 300 309 304 307
280 280 281 282 285 286 286 287 287 284 283 285 288 288 289 288 288 286 279 282 289 278 274 275 275 276 287 276 290 285 294 295 297 295 300 299 302 304 312 303 304 304 306
278 279 279 278 279 280 279 278 278 280 281 281 281 281 280 279 279 281 281 279 279 277 277 284 288 289 283 286 287 292 296 292 293 296 297 300 306 310 303 304 301 303 306
279 278 277 278 280 282 283 280 279 279 279 279 279 279 281 278 278 278 279 276 274 271 272 280 281 287 284 287 287 289 288 292 295 296 299 302 304 306 302 302 299 303 305
281 282 282 283 284 285 283 283 284 284 282 283 282 280 278 278 278 279 278 278 280 282 285 285 291 289 288 281 291 285 293 295 294 297 299 303 305 298 300 299 300 303 305
279 283 286 287 285 286 287 289 287 285 282 283 284 283 284 281 280 280 281 281 282 285 289 290 287 284 285 281 288 281 289 293 294 298 300 303 297 294 294 297 300 302 304
282 285 286 285 285 286 289 292 293 292 289 284 285 282 281 280 280 279 281 285 289 291 291 290 288 286 287 289 289 286 289 291 299 297 297 294 287 287 292 296 299 301 303
282 283 287 288 286 287 290 291 294 296 292 290 287 286 285 283 282 287 290 292 291 290 289 288 288 288 290 288 290 282 283 293 293 293 290 284 284 291 293 294 297 299 299
285 284 287 289 290 290 290 293 295 294 292 292 290 289 287 286 286 287 290 290 289 289 288 288 287 286 284 283 286 287 287 290 290 290 287 286 292 293 294 294 295 297 298
285 290 293 293 293 293 292 292 291 291 290 290 290 291 291 290 289 289 289 289 289 289 289 290 290 290 289 288 287 287 289 290 290 289 290 289 288 289 290 291 293 294 297
286 289 292 290 290 289 290 291 290 289 289 290 289 289 289 289 289 289 286 285 285 286 289 289 288 288 288 288 286 286 286 286 286 284 286 286 286 288 290 291 291 293 295
281 286 291 292 292 291 291 291 289 289 287 287 287 286 285 285 284 284 285 287 288 288 288 289 289 288 287 286 285 285 284 284 279 278 281 284 286 287 289 288 289 293 294
283 287 289 289 288 290 291 290 288 288 290 289 286 284 284 284 283 285 287 287 287 289 291 290 290 289 288 288 286 285 283 282 281 280 280 282 282 284 286 287 289 292 290
280 284 284 284 285 285 285 287 287 287 287 286 286 285 284 283 283 283 284 286 287 287 287 288 289 288 287 286 284 283 283 282 281 281 280 280 281 282 284 286 287 288 287
280 280 282 283 283 283 283 283 283 284 284 283 283 283 282 283 284 285 287 287 287 286 286 286 285 284 283 284 285 284 284 283 282 281 280 280 282 283 284 285 285 286 287
280 280 281 281 282 282 281 281 279 279 279 280 280 281 282 284 285 286 287 286 286 286 286 286 286 287 287 288 288 288 287 286 286 285 284 284 283 283 283 282 283 282 281
278 279 279 279 280 280 280 280 280 279 279 279 279 279 282 284 283 284 284 285 287 288 288 289 290 291 291 292 292 291 289 287 285 284 283 283 282 281 281 280 279 279 277
274 274 274 275 276 277 278 279 279 280 280 280 281 280 282 285 286 287 288 288 289 291 292 293 293 292 292 291 290 289 288 287 285 283 282 281 279 278 277 277 275 275 273
275 275 275 275 276 277 279 280 281 281 281 281 282 283 284 285 287 289 290 290 292 292 293 293 293 292 292 291 290 288 286 285 283 283 280 278 277 273 273 273 272 271 271
272 273 274 276 278 279 280 281 281 281 281 281 282 283 285 287 288 289 290 292 292 292 292 293 292 291 290 289 288 287 286 284 283 279 277 276 274 272 269 264 266 266 265
272 273 274 276 277 278 278 278 280 281 283 284 286 287 289 290 292 293 292 292 293 293 292 292 291 290 290 290 289 288 286 284 282 278 277 275 274 272 270 268 264 266 269